Regional Weather Roundup
Issued by NWS Upton, NY

Home | Current Version | Previous Version | Text Only | Print | Product List | Glossary On
Versions: 1 2 3 4 5 6 7 8 9 10 11 12 13 14 15 16 17 18 19 20 21 22 23 24 25 26 27
000
ASUS41 KOKX 260505
RWROKX

REGIONAL WEATHER ROUNDUP
NATIONAL WEATHER SERVICE NEW YORK NY
100 AM EDT SUN OCT 26 2014

NOTE: "FAIR" INDICATES FEW OR NO CLOUDS BELOW 12,000 FEET WITH NO
SIGNIFICANT WEATHER AND/OR OBSTRUCTIONS TO VISIBILITY.

NYZ071-072-176-178-NJZ106-104-260600-
NEW YORK CITY METRO AREA


CITY           SKY/WX    TMP DP  RH WIND       PRES   REMARKS
CENTRAL PARK   LGT RAIN  60  46  59 W12G22    29.60R
LAGUARDIA APRT LGT RAIN  62  46  55 W15G25    29.57R
KENNEDY INTL   MOCLDY    59  47  64 SW14      29.57F
NEWARK/LIBERTY MOCLDY    61  45  55 NW14G25   29.59R
BRNX BOT. GARD   N/A     61  46  59 W8        29.59R
TETERBORO      LGT RAIN  60  48  64 W14G22    29.57R
$$

NYZ177-179-078>081-260600-
LONG ISLAND NEW YORK

CITY           SKY/WX    TMP DP  RH WIND       PRES   REMARKS
FARMINGDALE    MOCLDY    60  45  57 W10       29.55F
ISLIP          PTCLDY    59  47  64 SW9       29.53F
SHIRLEY        PTCLDY    61  47  59 SW13      29.55F
WESTHAMPTON    PTCLDY    61  47  59 W15G24    29.55F
MONTAUK POINT    N/A     63  50  62 SW9G17    29.54F
$$

NYZ052-065-067-260600-
HUDSON VALLEY

CITY           SKY/WX    TMP DP  RH WIND       PRES   REMARKS
WHITE PLAINS   LGT RAIN  58  46  64 W9        29.56R
NEWBURGH       PTCLDY    50  50 100 NW7       29.57F
MONTGOMERY     PTCLDY    53  44  71 W6        29.55S
POUGHKEEPSIE   PTCLDY    58  45  62 NW7       29.55S
ALBANY         PTCLDY    49  45  86 CALM      29.51F
$$

NJZ001-105-106-008-010-013-015-019>022-104-260600-
NEW JERSEY

CITY           SKY/WX    TMP DP  RH WIND       PRES   REMARKS
NEWARK/LIBERTY MOCLDY    61  45  55 NW14G25   29.59R
TETERBORO      LGT RAIN  60  48  64 W14G22    29.57R
CALDWELL       LGT RAIN  57  49  74 CALM      29.59R
MORRISTOWN     CLOUDY    59  50  72 CALM      29.59R
SOMERVILLE     CLOUDY    61  45  55 NW8       29.58R
SUSSEX         MOCLDY    54  46  74 CALM      29.58R
ANDOVER          N/A     51  50  96 CALM      29.59F
TRENTON        CLOUDY    58  44  60 CALM      29.59S
MILLVILLE      CLEAR     56  47  71 SW6       29.64F
ATLANTIC CITY  CLEAR     58  46  64 SW9       29.63F
WRIGHTSTOWN    PTCLDY    55  44  66 SW9       29.58F
TOMS RIVER     PTCLDY    55  45  67 SW5       29.61F
BELMAR         CLEAR     57  41  54 SW9G16    29.58F
$$

PAZ047>061-062-071-260600-
EASTERN PENNSYLVANIA

CITY           SKY/WX    TMP DP  RH WIND       PRES   REMARKS
PHILADELPHIA   CLOUDY    59  45  59 SW12      29.62F
ALLENTOWN      MOCLDY    57  46  66 CALM      29.60S
SCRANTON       CLEAR     56  39  53 SW5       29.58F
$$

CTZ002-004>006-009-010-012-RIZ004-006-007-MAZ004-011-015-260600-
SOUTHERN NEW ENGLAND
 IN CT

CITY           SKY/WX    TMP DP  RH WIND       PRES   REMARKS
BRADLEY INTL   PTCLDY    56  43  61 W8        29.52F
HARTFORD       MOCLDY    58  45  62 VRB6      29.53R
DANBURY        CLOUDY    55  46  71 W5        29.56F
WTRBRY/OXFORD  MOCLDY    55  43  62 W5        29.53F
BRIDGEPORT     MOCLDY    60  47  61 W6        29.54S
MERIDEN        MOCLDY    51  47  86 CALM      29.53F
NEW HAVEN      CLOUDY    61  48  62 CALM      29.53F
CHESTER        MOCLDY    57  48  72 W5        29.53F
GROTON         PTCLDY    60  51  72 W12       29.51F
WILLIMANTIC    PTCLDY    51  46  83 CALM      29.54R

 IN RI

CITY           SKY/WX    TMP DP  RH WIND       PRES   REMARKS
PROVIDENCE     CLOUDY    58  48  69 W10       29.50F
BLOCK ISLAND   CLOUDY    63  54  72 W17G25    29.52F
WESTERLY       MOCLDY    61  52  72 W9G20     29.52F

 IN MA

CITY           SKY/WX    TMP DP  RH WIND       PRES   REMARKS
BOSTON         CLOUDY    57  46  66 SW15      29.48F
WORCESTER      PTCLDY    51  43  74 W16       29.49F
WESTFIELD      MOCLDY    50  44  80 CALM      29.51F
PROVINCETOWN   MOCLDY    57   3  11 SW10G17   29.49F
NANTUCKET      CLOUDY    61  53  75 SW17      29.53F
$$

ANZ330-335-338-340-345-350-353-355-260600-
COASTAL MARINE OBSERVATIONS


STATION/POSITION TIME  SKY/WX   TEMP    WIND        PRES    VSBY  WAVE
                                AIR SEA DIR/SP/G                  HT/PER
                 (UTC)          (F)     (DEG/KT/KT) (MB)    (MI)  (FT/S)
NY HARB ENTRANCE NOT AVBL
4S FIRE IS       0500               62                N/A           5/ 5
20S FIRE ISLAND  0500            64 63  250/ 23/ 27 1000.4          6/ 6
23SW MTP         0500                                 N/A           7/ 6
HUDSON CANYON    0500            64 65  240/ 25/ 29 1002.1          6/ 6
EXECUTION ROCKS  0500            63 61  250/ 16/ 25   N/A
WESTERN LI SOUND 0500            63     240/ 14/ 16   N/A           2/ 3
CENTRAL LI SOUND 0400            62 62  250/ 16/ 19   N/A           3/ 4
EASTERN LI SOUND 0400            63 62  250/ 17/ 25   N/A
ROBBINS REEF     0500            60     240/ 13/ 16  999.7
$$


>>>>>>>>>>>>>>>>>>>>>>>>>>>> KEY <<<<<<<<<<<<<<<<<<<<<<<<<<<
>                                                          <
>     SKY/WX - SKY CONDITION/PRESENT WEATHER               <
>     TMP    - TEMPERATURE IN FAHRENHEIT                   <
>     DP     - DEWPOINT IN FAHRENHEIT                      <
>     RH     - RELATIVE HUMIDITY IN PERCENT                <
>     WIND   - DIRECTION AND SPEED IN MPH                  <
>     PRES   - MEAN SEA LEVEL PRESSURE IN INCHES OF HG     <
>     WCI    - WIND CHILL INDEX                            <
>     VSB    - VISIBILITY IN MILES                         <
>     HX     - HEAT INDEX                                  <
>     TC     - TEMPERATURE IN CELSIUS                      <
>     VRB    - VARIABLE WIND DIRECTION                     <
>                                                          <
>>>>>>>>>>>>>>>>>>>>>>>>>>>> KEY <<<<<<<<<<<<<<<<<<<<<<<<<<<





USA.gov is the U.S. government's official web portal to all federal, state and local government web resources and services.